FW4805 Weather Reports


Display with metric or nautical units.
time (UTC)temp
F
wind
direction
speed
MPH
gust
MPH
rain 1hr
in
rain 24hr
in
rain mn
in
humidity
%
barometer
mb
20260504050004 57 66 9.0 17.0 0.00 0.09 0.00 51 1016.5
20260504045004 57 74 10.0 20.0 0.00 0.09 0.00 52 1016.5
20260504044004 57 71 14.0 23.0 0.00 0.09 0.00 52 1016.3
20260504043004 56 72 8.0 17.0 0.00 0.09 0.00 57 1016.3
20260504041004 56 76 8.0 19.0 0.00 0.09 0.00 58 1016.2
20260504040004 55 72 7.0 16.0 0.00 0.09 0.00 59 1016.1
20260504035004 56 72 9.0 16.0 0.00 0.09 0.00 58 1016.0
20260504034005 55 74 10.0 20.0 0.00 0.09 0.00 57 1016.0
20260504031004 55 75 8.0 14.0 0.00 0.09 0.00 58 1016.0
20260504024004 55 73 9.0 22.0 0.00 0.09 0.00 59 1015.7
20260504023004 55 73 10.0 24.0 0.00 0.09 0.00 60 1015.6
20260504022004 55 73 7.0 13.0 0.00 0.09 0.00 62 1015.7
20260504020004 55 73 8.0 17.0 0.00 0.09 0.00 59 1015.8
20260504015004 55 75 10.0 22.0 0.00 0.09 0.00 59 1015.7
20260504014004 55 79 7.0 19.0 0.00 0.09 0.00 60 1015.8
20260504013004 55 73 9.0 23.0 0.00 0.09 0.00 59 1016.0
20260504012004 55 72 11.0 24.0 0.00 0.09 0.00 59 1015.9
20260504011004 55 72 12.0 28.0 0.00 0.09 0.00 58 1015.9
20260504010005 56 77 15.0 32.0 0.00 0.09 0.00 59 1015.6
20260504005004 56 72 13.0 24.0 0.00 0.09 0.00 58 1015.8
20260504004004 56 71 14.0 26.0 0.00 0.09 0.00 58 1015.7
20260504001004 55 72 12.0 19.0 0.00 0.09 0.00 59 1015.6
20260503235004 55 71 13.0 25.0 0.00 0.09 0.00 59 1015.7
20260503234004 55 69 15.0 25.0 0.00 0.09 0.00 58 1015.6
20260503233004 56 73 17.0 25.0 0.00 0.09 0.00 59 1015.6
20260503232004 56 70 18.0 29.0 0.00 0.09 0.00 57 1015.6
20260503230004 56 73 21.0 34.0 0.00 0.09 0.00 57 1015.3
20260503225004 56 70 17.0 34.0 0.00 0.09 0.00 61 1015.5
20260503222004 56 70 14.0 31.0 0.00 0.09 0.00 60 1015.6
20260503221004 56 66 19.0 25.0 0.00 0.09 0.00 58 1015.5
20260503214956 56 71 19.0 38.0 0.00 0.09 0.00 61 1015.7
20260503213956 56 65 18.0 29.0 0.00 0.09 0.00 59 1015.4
20260503212956 56 69 21.0 29.0 0.00 0.09 0.00 58 1015.5
20260503211956 56 68 19.0 43.0 0.00 0.09 0.00 59 1015.6
20260503210956 56 67 16.0 26.0 0.00 0.09 0.00 59 1015.6
20260503205956 56 73 14.0 28.0 0.00 0.09 0.00 59 1015.6
20260503203956 56 71 14.0 28.0 0.00 0.09 0.09 60 1015.4
20260503202956 56 70 14.0 25.0 0.00 0.09 0.09 61 1015.5
20260503201956 56 69 15.0 29.0 0.01 0.09 0.09 62 1015.3
20260503200956 56 67 14.0 28.0 0.01 0.09 0.09 63 1015.5
20260503195956 55 65 16.0 32.0 0.01 0.09 0.09 65 1015.4
20260503194956 54 69 12.0 31.0 0.02 0.09 0.09 70 1015.3
20260503193956 53 70 11.0 26.0 0.02 0.09 0.09 69 1015.4
20260503192956 55 65 17.0 30.0 0.02 0.09 0.09 66 1015.7
20260503190956 54 72 17.0 28.0 0.01 0.08 0.08 68 1015.1
20260503184956 56 55 12.0 25.0 0.02 0.07 0.07 64 1014.8
20260503183956 56 62 14.0 30.0 0.03 0.07 0.07 65 1014.9
20260503181956 54 68 12.0 28.0 0.03 0.07 0.07 70 1014.7
20260503180956 54 74 15.0 23.0 0.03 0.07 0.07 72 1014.4
20260503175956 55 69 15.0 26.0 0.02 0.06 0.06 71 1014.2
20260503173956 54 65 17.0 31.0 0.00 0.04 0.04 67 1014.5
20260503172956 56 73 19.0 30.0 0.00 0.04 0.04 63 1014.0
20260503171956 56 67 17.0 26.0 0.00 0.04 0.04 63 1013.8
20260503170956 56 67 15.0 26.0 0.00 0.04 0.04 63 1014.1
20260503150956 54 56 9.0 31.0 0.00 0.04 0.04 69 1013.6
20260503130956 55 41 11.0 32.0 0.00 0.04 0.04 62 1013.7
20260503080956 56 69 22.0 30.0 0.00 0.00 0.00 64 1013.1
20260503070957 53 69 17.0 36.0 0.00 0.00 0.00 63 1013.3